STARLINK-35015, 65283

Orbit data source: Space-Track

STARLINK-35015, 65283 is a payload satellite owned by SpaceX/Seattle (US) in SSO that was launched on Fri, 22 Aug 2025 UTC via an FALCON 9 launch vehicle from the Air Force Western Test Range (AFWTR). Payload-class satellites include a variety of spacecraft equipped with specific instruments for various scientific and technological missions. These include communications satellites like Starlink; space stations such as the ISS; scientific satellites like the Hubble; Earth observation satellites from companies like Planet Labs, Umbra, and HawkEye 360; GPS; miniature CubeSats for education and research; and military/defense satellites.

Loading next visibility...
Identifier
65283, 2025-184L
Orbit
SSO
Country
Flag of USUS
Related business
Manufacturer
SpaceX/Seattle
Mission
Operational Commercial Communications
Bus & Motor
STARLINK V2MO, Unknown motor
Mass
575 kg wet, ~530 kg dry
Launch date (UTC)
2025-08-22 (10 months ago)
Launch vehicle
FALCON 9
Launch site
Air Force Western Test Range (AFWTR)
Object type
Payload
Rocket body
Debris
Shape & HBR
Box + 2 Pan, 17.7 m
Radar Cross Section
36.964 m², Large (>1 m²)

Expand to show TLE details & history
Last TLE update: 1 day ago

TLE from 1 day ago
0 STARLINK-35015
1 65283U 25184L   26170.68380809  .00001846  00000-0  13187-3 0  9994
2 65283  97.3382 222.0640 0001537 105.1342 255.0055 15.05657691 46643
Epoch: 2026-06-19T16:24Z
TLE epoch observation values (Epoch: 2026-06-19T16:24:41.018Z)
Latitude
-0.00012°
Longitude
67.98385°
Altitude
552.836 km
Speed
7.585 km/s
True Right ascension
14h 48m 15s
True Declination
0° 00' 00"
Sunlit
Object was in full shadow at epoch
Visualization orbit readout
Latitude
Unknown
Longitude
Unknown
Altitude
Unknown
Speed
Unknown
Apparent Right ascension
Unknown
Apparent Declination
Unknown
Sunlit
N/A
Visualization observer readout
Local Sidereal Time
07:20:27
Azimuth
Unknown
Elevation
Unknown
Doppler factor
Unknown
Orbital elements
Apogee altitude
547.534 km
Perigee altitude
545.405 km
Semi-major axis
6,924.607 km
Eccentricity
0.00015
Inclination
97.3382°
RAAN
222.064°
Arg. of periapsis
105.1342°
True anomaly
254.98849°
Mean anomaly
255.0055°
Eccentric anomaly
254.99699°
Mean motion
3.76661 °/min
Orbital period
95.58 mins
BSTAR
0.00013187
Loading maneuver chart data...
Computing Atmospheric mass density...
Loading historical data...
Loading historical data...
Loading historical data...
Loading historical data...
Loading historical data...
Loading historical data...
Loading historical data...

Documentation

Showing up to 5 results
|